Flag for United Kingdom Weather past 2 weeks in Bangor, Wales, United Kingdom

Now
64 °F

Mild.


Feels Like: 64 °F
Forecast: 57 / 72 °F
Wind: 12 mph from East

Location: Capel Curig

Current Time: Sep 17, 2014 at 2:05:28 PM

Latest Report: Sep 17, 2014 at 1:00 PM


Visibility: 6 mi

Pressure: 29.93 "Hg

Humidity: 75%

Dew point: 56 °F

Location of BangorLocation

Historic Weather in Bangor — Graph

°F

Bangor temperature yesterday

Maximum temperature yesterday: 67 °F (at 3:00 PM)
Minimum temperature yesterday: 51 °F (at 12:00 AM)
Average temperature yesterday: 58 °F

Past Weeks' High & Low Weather Summary

 TemperatureHumidityPressure
High69 °F (Sep 10, 3:00 PM)100% (Sep 3, 8:00 AM)30.37 "Hg (Sep 3, 8:00 AM)
Low38 °F (Sep 8, 4:00 AM)51% (Sep 3, 4:00 PM)29.94 "Hg (Sep 16, 6:00 PM)
Average55 °F85%30.15 "Hg
* Reported Sep 2 12:00 Noon — Sep 17 12:00 Noon, Bangor, Weather by CustomWeather, © 2014

Note: Actual official high and low records may vary slightly from our data, if they occured in-between our weather recording intervals... More about our weather records

Advertising

Bangor weather history for previous 24 hours

 ConditionsComfort  
Time TempWeatherWind HumidityBarometerVisibility
12:00 PM
Sep 17
62 °FCool.12 mph79%29.95 "Hg7 mi
11:00 AM60 °FSmoke.13 mph84%29.96 "Hg6 mi
10:00 AM57 °FSmoke.14 mph90%29.97 "Hg5 mi
9:00 AM56 °FFog.13 mph94%29.97 "Hg4 mi
8:00 AM56 °FFog.12 mph95%29.96 "Hg3 mi
7:00 AM56 °FFog.8 mph100%29.96 "Hg2 mi
6:00 AM56 °FFog.7 mph100%29.95 "Hg2 mi
5:00 AM56 °FFog.7 mph99%29.95 "Hg2 mi
4:00 AM55 °FFog.6 mph100%29.96 "Hg2 mi
3:00 AM55 °FFog.6 mph99%29.97 "Hg2 mi
2:00 AM57 °FFog.6 mph98%29.98 "Hg2 mi
1:00 AM58 °FFog.9 mph95%29.98 "Hg2 mi
12:00 AM59 °FFog.5 mph94%29.98 "Hg3 mi
11:00 PM
Sep 16
59 °FSmoke.9 mph93%29.98 "Hg2 mi
10:00 PM59 °FSmoke.9 mph92%29.98 "Hg3 mi
9:00 PM60 °FSmoke.6 mph92%29.98 "Hg4 mi
8:00 PM60 °FCool.7 mph92%29.96 "Hg7 mi
7:00 PM63 °FMild.9 mph77%29.94 "Hg8 mi
6:00 PM65 °FMild.6 mph71%29.94 "Hg10 mi
5:00 PM65 °FMild.8 mph72%29.95 "Hg7 mi
4:00 PM66 °FMild.10 mph64%29.95 "Hg10 mi
3:00 PM67 °FMild.7 mph63%29.96 "Hg11 mi
2:00 PM65 °FMild.12 mph66%29.97 "Hg22 mi
Weather by CustomWeather, © 2014

See weather overviewHow to use our weather pages